Decatur, IL

2:47 AM CDT on August 28, 2016 (GMT -0500)
Decatur

Weather History for KDEC - January, 2013

Change the Weather History Date:

Monday, January 14, 2013

  Actual Average Record
Temperature  
Mean Temperature 20 °F 27 °F  
Max Temperature 25 °F 35 °F 55 °F (2016)
Min Temperature 14 °F 19 °F 4 °F (2015)
Degree Days  
Heating Degree Days 45 38  
Month to date heating degree days 484 527  
Since 1 July heating degree days 2429 2666  
Cooling Degree Days 0 0  
Month to date cooling degree days 0 0  
Year to date cooling degree days 0 0  
Moisture  
Dew Point 13 °F    
Average Humidity 78    
Maximum Humidity 88    
Minimum Humidity 68    
Precipitation  
Precipitation 0.00 in 0.06 in 0.00 in (2016)
Month to date precipitation 0.85 0.93  
Year to date precipitation 0.85 0.93  
Sea Level Pressure  
Sea Level Pressure 30.45 in    
Wind  
Wind Speed 6 mph (NNW)    
Max Wind Speed 16 mph    
Max Gust Speed 20 mph    
Visibility 10 miles    
Events      
T = Trace of Precipitation, MM = Missing Value Source: NWS Daily Summary

Daily Weather History Graph

Daily Weather History Graph

Search for Another Location

Airport or City:

Trip Planner

Search our weather history database for the weather conditions in past years. The results will help you decide how hot, cold, wet, or windy it might be!

Date:

Astronomy

Jan. 14, 2013 Rise Set
Actual Time 7:15 AM CST 4:54 PM CST
Civil Twilight 6:45 AM CST 5:24 PM CST
Nautical Twilight 6:12 AM CST 5:57 PM CST
Astronomical Twilight 5:39 AM CST 6:29 PM CST
Moon 8:49 AM CST (1/14) 8:39 PM CST (1/14)
Length of Visible Light 10h 38m
Length of Day
9h 39m
Waxing Crescent, 11% of the Moon is Illuminated
Jan 14
Waxing Crescent
Jan 18
First Quarter
Jan 26
Full
Feb 3
Last Quarter
Feb 10
New

Hourly Weather History & Observations

Time (CST) Temp. Windchill Dew Point Humidity Pressure Visibility Wind Dir Wind Speed Gust Speed Precip Events Conditions
12:54 AM 17.1 °F 6.6 °F 10.0 °F 74% 30.38 in 10.0 mi WNW 8.1 mph - N/A   Clear
1:54 AM 16.0 °F 7.4 °F 10.0 °F 77% 30.40 in 10.0 mi WNW 5.8 mph - N/A   Clear
2:54 AM 15.1 °F 5.2 °F 9.0 °F 77% 30.43 in 10.0 mi WNW 6.9 mph - N/A   Clear
3:54 AM 16.0 °F 5.3 °F 9.0 °F 74% 30.43 in 10.0 mi WNW 8.1 mph - N/A   Clear
4:54 AM 15.1 °F 1.8 °F 9.0 °F 77% 30.42 in 10.0 mi NW 11.5 mph - N/A   Clear
5:54 AM 15.1 °F 2.5 °F 9.0 °F 77% 30.43 in 10.0 mi NW 10.4 mph - N/A   Clear
6:54 AM 15.1 °F 2.5 °F 9.0 °F 77% 30.45 in 10.0 mi NW 10.4 mph - N/A   Clear
7:54 AM 16.0 °F 2.9 °F 10.0 °F 77% 30.45 in 9.0 mi NNW 11.5 mph - N/A   Clear
8:54 AM 18.0 °F 4.8 °F 12.0 °F 78% 30.45 in 10.0 mi North 12.7 mph - N/A   Clear
9:54 AM 21.0 °F 12.4 °F 14.0 °F 74% 30.48 in 10.0 mi NNE 6.9 mph - N/A   Clear
10:54 AM 21.9 °F - 14.0 °F 72% 30.50 in 10.0 mi Calm Calm - N/A   Clear
11:54 AM 23.0 °F - 15.1 °F 72% 30.48 in 10.0 mi Calm Calm - 0.02 in   Partly Cloudy
12:28 PM 23.0 °F 15.8 °F 15.8 °F 74% 30.42 in 10.0 mi NNW 5.8 mph - N/A   Mostly Cloudy
12:43 PM 23.0 °F 15.8 °F 15.8 °F 74% 30.43 in 10.0 mi NNW 5.8 mph - N/A   Mostly Cloudy
12:54 PM 23.0 °F 17.0 °F 15.1 °F 72% 30.46 in 10.0 mi North 4.6 mph - N/A   Mostly Cloudy
1:32 PM 23.0 °F 18.4 °F 15.8 °F 74% 30.45 in 10.0 mi WNW 3.5 mph - N/A   Overcast
2:54 PM 24.1 °F - 16.0 °F 71% 30.50 in 10.0 mi Calm Calm - N/A   Scattered Clouds
3:54 PM 24.1 °F - 16.0 °F 71% 30.48 in 10.0 mi Calm Calm - N/A   Clear
4:54 PM 21.0 °F - 14.0 °F 74% 30.48 in 10.0 mi Calm Calm - N/A   Clear
5:54 PM 19.9 °F 13.4 °F 14.0 °F 78% 30.47 in 10.0 mi NNE 4.6 mph - N/A   Clear
6:54 PM 21.0 °F 16.2 °F 14.0 °F 74% 30.46 in 10.0 mi NNE 3.5 mph - N/A   Clear
7:54 PM 18.0 °F 9.8 °F 12.9 °F 81% 30.44 in 10.0 mi North 5.8 mph - N/A   Clear
8:54 PM 18.0 °F 11.1 °F 12.9 °F 81% 30.44 in 10.0 mi North 4.6 mph - N/A   Clear
9:54 PM 17.1 °F 8.7 °F 12.0 °F 81% 30.44 in 10.0 mi NNE 5.8 mph - N/A   Clear
10:54 PM 16.0 °F 10.4 °F 12.9 °F 88% 30.45 in 10.0 mi NE 3.5 mph - N/A   Clear
11:54 PM 16.0 °F 10.4 °F 12.0 °F 84% 30.45 in 10.0 mi NE 3.5 mph - N/A   Clear